Home   Weather   Iron Mountain   Past weeks
Flag for USA

Past Weather in Iron Mountain, Michigan, USA — Yesterday and Last 2 Weeks

Now
78 °F

Sunny.


Feels Like: 79 °F
Forecast: 82 / 59 °F
Wind: 14 mph from Northwest

Location: Ford Airport

Current Time: Jun 26, 2019 at 11:21:07 am

Latest Report: Jun 26, 2019 at 10:54 am


Visibility: 10 mi

Pressure: 29.95 "Hg

Humidity: 45%

Dew Point: 55 °F

Location of Iron MountainLocation

Past Weather in Iron Mountain — Graph

°F

Iron Mountain Temperature Yesterday

Maximum temperature yesterday: 83 °F (at 3:54 pm)
Minimum temperature yesterday: 59 °F (at 4:54 am)
Average temperature yesterday: 69 °F

High & Low Weather Summary for the Past Weeks

 TemperatureHumidityPressure
High83 °F (Jun 25, 3:54 pm)93% (Jun 11, 10:54 pm)30.17 "Hg (Jun 11, 10:54 pm)
Low42 °F (Jun 17, 4:33 am)29% (Jun 11, 12:54 pm)29.46 "Hg (Jun 24, 4:54 pm)
Average61 °F68%29.86 "Hg
* Reported Jun 11 9:54 am — Jun 26 9:54 am, Iron Mountain. Weather by CustomWeather, © 2019

Note: Actual official high and low records may vary slightly from our data, if they occured in-between our weather recording intervals... More about our weather records

Advertising

Iron Mountain Weather History for the Previous 24 Hours

Scroll right to see more
 ConditionsComfort  
Time TempWeatherWind HumidityBarometerVisibility
9:54 am
Wed, Jun 26
74 °FSunny.13 mph53%29.94 "Hg10 mi
8:54 am72 °FSunny.13 mph61%29.92 "Hg10 mi
7:54 am67 °FSunny.12 mph71%29.93 "Hg10 mi
6:54 am63 °FSunny.7 mph75%29.90 "Hg10 mi
5:54 am60 °FSunny.9 mph80%29.89 "Hg10 mi
4:54 am59 °FClear.10 mph84%29.87 "Hg10 mi
3:54 am59 °FClear.7 mph84%29.85 "Hg10 mi
2:54 am59 °FClear.8 mph87%29.84 "Hg10 mi
1:54 am60 °FPassing clouds.7 mph83%29.83 "Hg10 mi
12:54 am60 °FClear.7 mph83%29.82 "Hg10 mi
11:54 pm
Tue, Jun 25
60 °FClear.6 mph80%29.80 "Hg10 mi
10:54 pm60 °FClear.7 mph80%29.78 "Hg10 mi
9:54 pm60 °FClear.5 mph83%29.76 "Hg10 mi
8:54 pm62 °FLight rain. Mostly cloudy.3 mph80%29.75 "Hg10 mi
7:54 pm65 °FLight rain. Mostly cloudy.5 mph70%29.70 "Hg5 mi
6:54 pm79 °FSunny.12 mph38%29.65 "Hg10 mi
5:54 pm81 °FPassing clouds.15 mph37%29.64 "Hg10 mi
4:54 pm81 °FScattered clouds.10 mph39%29.63 "Hg10 mi
3:54 pm83 °FPassing clouds.12 mph37%29.63 "Hg10 mi
2:54 pm81 °FPassing clouds.12 mph41%29.63 "Hg10 mi
1:54 pm82 °FPassing clouds.13 mph41%29.64 "Hg10 mi
12:54 pm78 °FSunny.8 mph48%29.65 "Hg10 mi
11:54 am74 °FPartly sunny.12 mph52%29.67 "Hg10 mi
Weather by CustomWeather, © 2019

See weather overview